CYQU

Grande Prairie

Airport
ICAO code
CYQU
Summary
ICAO Region
NAM
ICAO Territory
Location

Grande Prairie, Alberta,

Coordinates
55° 10' 47" N , 118° 53' 6" W
KCC
Metar
CYQU 210400Z 07009KT 25SM SKC 03/M12 A2978 RMK SLP113

Description

Grande Prairie Airport is located 3 nm west northwest of Grande Prairie, Alberta, Canada.

Climatology

Subarctic climate (Köppen climate classification Dfc) - long, usually very cold winters, and short, cool to mild summers.

Runways

Designator Length Width Surface Rops
7/25 1890 61 ASP Yes/Yes
12/30 1981 61 ASP Yes/Yes

Airport map

Aerial View

SKYbrary Partners:

Safety knowledge contributed by: